EB2EMZ-W Weather Reports


Display with metric or nautical units.
time (UTC)temp
F
wind
direction
speed
MPH
gust
MPH
rain 1hr
in
rain 24hr
in
rain mn
in
humidity
%
barometer
mb
20260507222137 55 118 0.0 0.0 0.00 0.00 0.00 78 994.0
20260507215117 55 118 0.0 0.0 0.00 0.00 0.00 75 994.0
20260507212056 57 118 0.0 0.0 0.00 0.00 0.00 73 994.0
20260507205035 57 118 0.0 0.0 0.00 0.00 0.00 73 993.0
20260507202016 58 118 0.0 0.0 0.00 0.00 0.00 67 993.0
20260507194955 60 340 0.0 0.0 0.00 0.00 0.00 59 992.0
20260507191935 61 340 0.0 0.0 0.00 0.00 0.00 55 993.0
20260507184915 62 318 0.0 2.0 0.00 0.00 0.00 52 993.0
20260507181854 66 325 0.0 0.0 0.00 0.00 0.00 38 994.0
20260507174834 65 63 0.0 0.0 0.00 0.00 0.00 40 993.0
20260507171814 66 62 0.0 0.0 0.00 0.00 0.00 37 992.0
20260507164755 66 62 0.0 0.0 0.00 0.00 0.00 40 993.0
20260507161733 63 31 1.0 2.0 0.00 0.00 0.00 38 993.0
20260507154713 66 322 2.0 5.0 0.00 0.00 0.00 27 993.0
20260507151653 74 281 0.0 0.0 0.00 0.00 0.00 23 992.0
20260507144632 74 106 0.0 0.0 0.00 0.00 0.00 28 992.0
20260507141612 72 280 0.0 0.0 0.00 0.00 0.00 33 992.0
20260507134552 70 263 0.0 0.0 0.00 0.00 0.00 33 993.0
20260507131532 75 334 0.0 0.0 0.00 0.04 0.00 30 993.0
20260507124511 76 334 0.0 0.0 0.00 0.04 0.00 29 993.0
20260507121453 72 334 0.0 0.0 0.00 0.04 0.00 32 994.0
20260507114433 71 334 0.0 0.0 0.00 0.04 0.00 33 994.0
20260507111412 70 334 0.0 0.0 0.00 0.04 0.00 34 995.0
20260507104351 68 334 0.0 0.0 0.00 0.04 0.00 34 995.0
20260507101331 66 334 0.0 0.0 0.00 0.04 0.00 39 995.0
20260507094311 64 334 0.0 0.0 0.00 0.04 0.00 43 996.0
20260507091250 63 334 0.0 0.0 0.00 0.04 0.00 44 995.5
20260507084229 61 334 0.0 0.0 0.00 0.04 0.00 51 995.1
20260507081210 59 334 0.0 0.0 0.00 0.04 0.00 58 995.0
20260507074150 55 333 0.0 0.0 0.00 0.04 0.00 72 995.0
20260507064113 51 334 0.0 0.0 0.00 0.04 0.00 77 996.0
20260507061054 51 334 0.0 0.0 0.00 0.04 0.00 80 996.0
20260507054033 50 333 0.0 0.0 0.00 0.04 0.00 80 996.0
20260507051013 50 333 0.0 0.0 0.00 0.04 0.00 80 996.0
20260507043953 50 333 0.0 0.0 0.00 0.04 0.00 79 996.0
20260507040934 51 333 0.0 0.0 0.00 0.04 0.00 80 996.0
20260507033914 51 334 0.0 0.0 0.00 0.04 0.00 81 996.0
20260507030852 51 334 0.0 0.0 0.00 0.04 0.00 82 996.0
20260507023833 52 334 0.0 0.0 0.00 0.04 0.00 83 996.0
20260507020812 52 333 0.0 0.0 0.00 0.04 0.00 84 996.0
20260507013752 52 333 0.0 0.0 0.00 0.04 0.00 85 997.0
20260507010732 51 333 0.0 0.0 0.00 0.04 0.00 85 997.0
20260507003712 52 334 0.0 0.0 0.00 0.04 0.00 84 997.0
20260507000654 52 334 0.0 0.0 0.00 0.04 0.00 83 997.0
20260506233632 52 334 0.0 0.0 0.00 0.04 0.00 83 997.0